STARLINK-3314 (50851 NORAD) Tracking and Keplerian Element Data

This shows tracking and keplerian element data for the satellite.

Feedback or suggestion? Click here.




ElementValue
Catalog50851
NameSTARLINK-3314
Epoch Orbit380
Epoch Day22.91667824
Epoch Year2022
RAAN119.7377
Inclination53.2175
Eccentricity0.0001032
Argument of Perigee76.8381
Mean Anonmoly249.2497
Mean Motion15.75481145
Decay Rate-0.00820984
L11 50851U 22001BA 22022.91667824 -.00820984 00000+0 -58309-2 0 9994
L22 50851 53.2175 119.7377 0001032 76.8381 249.2497 15.75481145 3807

Live tracking and technical data element details for STARLINK-3314 (NORAD 50851). STARLINK-3314 can be tracked NOW for your location showing map with azimuth and elevation plus other details from your city location.

Track the satellite on the map from your city or location and see movement details for azimuth, elevation, latitude, longitude, range, height, and movement on the map or in text.







IsCatalogInMostPopularTable: catalog: 50851, numindb: 4
Update: records affected: 1



GetName: 50851 STARLINK-3314

Hit Count: updated at: Mon, 24 Jan 2022 00:52:48 GMT